OV1-14 R/B, 3177

Orbit data source: Space-Track

OV1-14 R/B, 3177 is space debris originally from a launch on Sat, 06 Apr 1968 UTC launched from the Air Force Western Test Range (AFWTR). Debris objects in space refer to the collection of defunct objects orbiting the Earth. Examples of debris include non-operational satellites, rocket bodies, and fragments generated from explosions, collisions, or faulty payload assembly.

Loading next visibility...
Identifier
3177, 1968-026C
Orbit
Active
Last TLE update
17 hours ago
Origin
Manufacturer
UTC
Mission
Spacecraft
Bus & Motor
FW4, Unknown motor
Mass
125 kg wet, 125 kg dry
Launch date (UTC)
1968-04-06 (57 years ago)
Launch vehicle
Unknown
Launch site
Air Force Western Test Range (AFWTR)
Object type
Payload
Rocket body
Debris
Shape & HBR
Cyl, 2.05 m
Radar Cross Section
1.363 m², Medium (>0.1 m² and < 1m²)

Expand to show TLE details & history

TLE from 17 hours ago
0 OV1-14 R/B
1 03177U 68026C   25191.73060367  .00000280  00000-0  41082-3 0  9998
2 03177 100.0053 266.2819 4015536 174.3825 338.9567  6.97970499453370
Epoch: 2025-07-10T17:32Z
TLE epoch observation values (Epoch: 2025-07-10T17:32:04.157Z)
Latitude
54.42152°
Longitude
-91.42612°
Altitude
1,339.344 km
Speed
8.307 km/s
True Right ascension
06h 41m 56s
True Declination
54° 16' 15"
Sunlit
Object was in daylight at epoch
Visualization orbit readout
Latitude
49.40757°
Longitude
62.7397°
Altitude
6,089.422 km
Speed
5.435 km/s
Apparent Right ascension
14h 46m 36s
Apparent Declination
31° 04' 16"
Sunlit
Object is in daylight
Visualization observer readout
Local Sidereal Time
22:28:31
Azimuth
309.272° NW
Elevation
2.784°
Doppler factor
1
Orbital elements
Apogee altitude
9,828.857 km
Perigee altitude
542.053 km
Semi-major axis
11,563.592 km
Eccentricity
0.40155
Inclination
100.0053°
RAAN
266.2819°
Arg. of periapsis
174.3825°
True anomaly
Unknown
Mean anomaly
338.9567°
Eccentric anomaly
Unknown
Mean motion
1.74544 °/min
Orbital period
206.25 mins
BSTAR
0.00041082
Loading maneuver chart data...
Loading SW <> Apogee altitude chart data...
Loading historical data...
Loading historical data...
Loading historical data...
Loading historical data...
Loading historical data...
Loading historical data...
Loading historical data...
Other satellites on launch #26 in the year 1968 (1968-04-06 UTC)

OV1-14 R/B Visibility forecast

Observer location: undefined°, undefined°

Span
Click to sort rows by Start time (UTC) header in descending order
Start Az.
Max El. time (UTC)
Max El. Az.
Max El.
End time (UTC)
End Az.
11 mins2025-07-11 17:32:41.386Z18.197° NNE2025-07-11 17:40:41.386Z107.907° ESE40.971°2025-07-11 17:43:41.386Z176.612° S
17 mins2025-07-11 23:57:41.386Z51.963° ENE2025-07-12 00:07:41.386Z30.648° NE14.231°2025-07-12 00:14:41.386Z8.04° NNE
68 mins2025-07-12 02:32:41.386Z123.944° SE2025-07-12 03:20:41.386Z58.447° ENE40.364°2025-07-12 03:40:41.386Z351.584° N
84 mins2025-07-12 05:39:41.386Z180.78° SSW2025-07-12 06:34:41.386Z255.635° W39.006°2025-07-12 07:03:41.386Z337.166° NNW
|